Weather History for Fairmont, MN

Change the Weather History Date:

Sunday, January 1, 2012

  Actual Average Record
Temperature  
Mean Temperature 30 °F -  
Max Temperature 33 °F 22 °F 48 °F (1964)
Min Temperature 24 °F 5 °F -28 °F (1974)
Degree Days  
Heating Degree Days 36    
Moisture  
Dew Point 18 °F    
Average Humidity 67    
Maximum Humidity 81    
Minimum Humidity 59    
Precipitation  
Precipitation 0.00 in - - ()
Sea Level Pressure  
Sea Level Pressure 30.11 in    
Wind  
Wind Speed 30 mph (NW)    
Max Wind Speed 40 mph    
Max Gust Speed 52 mph    
Visibility 10 miles    
Events      
Averages and records for this station are not official NWS values.
T = Trace of Precipitation, MM = Missing Value Source: NWS Daily Summary

Daily Weather History Graph

Daily Weather History Graph

Search for Another Location

Airport:

Trip Planner

Search our weather history database for the weather conditions in past years. The results will help you decide how hot, cold, wet, or windy it might be!

Date:

Astronomy

Jan. 01, 2012 Rise Set
Actual Time 7:51 AM CST 4:51 PM CST
Civil Twilight 7:18 AM CST 5:23 PM CST
Nautical Twilight 6:42 AM CST 6:00 PM CST
Astronomical Twilight 6:07 AM CST 6:34 PM CST
Moon 11:46 AM CST (1/1) 12:39 AM CST (1/1)
Length of Visible Light 10h 05m
Length of Day
8h 59m
First Quarter, 55% of the Moon is Illuminated
Jan 1
First Quarter
Jan 9
Full
Jan 16
Last Quarter
Jan 23
New
Jan 30
First Quarter

Hourly Weather History & Observations

Time (CST) Temp. Windchill Dew Point Humidity Pressure Visibility Wind Dir Wind Speed Gust Speed Precip Events Conditions
12:15 AM 33.8 °F 19.0 °F 28.4 °F 81% 29.83 in 10.0 mi NNW 35.7 mph 49.5 mph N/A   Overcast
12:55 AM 32.0 °F 16.5 °F 24.8 °F 75% 29.85 in 10.0 mi NW 35.7 mph 41.4 mph N/A   Overcast
1:15 AM 32.0 °F 17.0 °F 24.8 °F 75% 29.87 in 10.0 mi NNW 33.4 mph 46.0 mph N/A   Overcast
1:35 AM 30.2 °F 14.1 °F 24.8 °F 80% 29.89 in 10.0 mi NW 35.7 mph 41.4 mph N/A   Overcast
1:55 AM 30.2 °F 13.3 °F 23.0 °F 75% 29.90 in 10.0 mi NNW 40.3 mph 51.8 mph N/A   Overcast
2:15 AM 30.2 °F 14.1 °F 24.8 °F 80% 29.92 in 10.0 mi NNW 35.7 mph 48.3 mph N/A   Overcast
2:35 AM 28.4 °F 11.8 °F 21.2 °F 74% 29.95 in 10.0 mi NNW 34.5 mph 42.6 mph N/A   Overcast
2:55 AM 30.2 °F 15.2 °F 21.2 °F 69% 29.97 in 10.0 mi NNW 29.9 mph 46.0 mph N/A   Overcast
3:15 AM - - - N/A% 29.97 in 10.0 mi NW 25.3 mph 34.5 mph N/A   Overcast
3:35 AM - - - N/A% 29.98 in 10.0 mi NW 28.8 mph 34.5 mph N/A   Overcast
3:55 AM - - - N/A% 29.99 in 10.0 mi NW 24.2 mph 35.7 mph N/A   Overcast
4:15 AM - - - N/A% 30.00 in 10.0 mi NW 25.3 mph 39.1 mph N/A   Overcast
4:35 AM - - - N/A% 30.01 in 10.0 mi NW 31.1 mph 40.3 mph N/A   Overcast
4:55 AM - - - N/A% 30.03 in 10.0 mi NW 25.3 mph 35.7 mph N/A   Overcast
5:15 AM 26.6 °F 11.1 °F 19.4 °F 74% 30.04 in 10.0 mi NW 26.5 mph 33.4 mph N/A   Scattered Clouds
5:35 AM 26.6 °F 11.1 °F 19.4 °F 74% 30.04 in 10.0 mi NW 26.5 mph 35.7 mph N/A   Clear
5:55 AM 26.6 °F 12.0 °F 17.6 °F 69% 30.06 in 10.0 mi NW 23.0 mph 32.2 mph N/A   Clear
6:15 AM 26.6 °F 11.4 °F 17.6 °F 69% 30.07 in 10.0 mi NW 25.3 mph 31.1 mph N/A   Clear
6:35 AM 26.6 °F 11.4 °F 17.6 °F 69% 30.07 in 10.0 mi NW 25.3 mph 32.2 mph N/A   Clear
6:55 AM 26.6 °F 13.4 °F 15.8 °F 64% 30.08 in 10.0 mi WNW 18.4 mph 24.2 mph N/A   Clear
7:15 AM - - - N/A% 30.08 in 10.0 mi WNW 21.9 mph 31.1 mph N/A   Clear
7:35 AM - - - N/A% 30.09 in 10.0 mi WNW 24.2 mph 32.2 mph N/A   Clear
7:55 AM - - - N/A% 30.09 in 10.0 mi NW 27.6 mph 34.5 mph N/A   Clear
8:15 AM - - - N/A% 30.10 in 10.0 mi WNW 21.9 mph 31.1 mph N/A   Mostly Cloudy
8:35 AM 26.6 °F 11.4 °F 15.8 °F 64% 30.11 in 10.0 mi WNW 25.3 mph 29.9 mph N/A   Overcast
8:55 AM 26.6 °F 11.1 °F 15.8 °F 64% 30.11 in 10.0 mi WNW 26.5 mph 36.8 mph N/A   Scattered Clouds
9:15 AM 26.6 °F 10.8 °F 15.8 °F 64% 30.12 in 10.0 mi WNW 27.6 mph 40.3 mph N/A   Partly Cloudy
9:35 AM - - - N/A% 30.12 in 10.0 mi WNW 24.2 mph 35.7 mph N/A   Partly Cloudy
9:55 AM 26.6 °F 11.4 °F 15.8 °F 64% 30.13 in 10.0 mi WNW 25.3 mph 33.4 mph N/A   Clear
10:15 AM 28.4 °F 13.8 °F 15.8 °F 59% 30.14 in 10.0 mi WNW 25.3 mph 32.2 mph N/A   Clear
10:35 AM 28.4 °F 12.7 °F 15.8 °F 59% 30.14 in 10.0 mi WNW 29.9 mph 38.0 mph N/A   Clear
10:55 AM 28.4 °F 13.3 °F 15.8 °F 59% 30.15 in 10.0 mi WNW 27.6 mph 36.8 mph N/A   Mostly Cloudy
11:15 AM - - - N/A% 30.14 in 10.0 mi NW 28.8 mph 38.0 mph N/A   Overcast
11:35 AM - - - N/A% 30.14 in 10.0 mi NW 27.6 mph 35.7 mph N/A   Overcast
11:55 AM - - - N/A% 30.14 in 10.0 mi WNW 31.1 mph 42.6 mph N/A   Overcast
12:15 PM 28.4 °F 11.0 °F 15.8 °F 59% 30.15 in 10.0 mi NW 39.1 mph 46.0 mph N/A   Overcast
12:35 PM 28.4 °F 11.6 °F 15.8 °F 59% 30.16 in 10.0 mi NW 35.7 mph 40.3 mph N/A   Overcast
12:55 PM 28.4 °F 11.2 °F 15.8 °F 59% 30.16 in 10.0 mi NW 38.0 mph 43.7 mph N/A   Overcast
1:15 PM 26.6 °F 10.0 °F 15.8 °F 64% 30.17 in 10.0 mi NW 31.1 mph 39.1 mph N/A   Overcast
1:35 PM 26.6 °F 10.8 °F 15.8 °F 64% 30.18 in 10.0 mi WNW 27.6 mph 38.0 mph N/A   Overcast
1:55 PM 26.6 °F 9.3 °F 15.8 °F 64% 30.19 in 10.0 mi WNW 34.5 mph 42.6 mph N/A   Overcast
2:15 PM 26.6 °F 10.0 °F 15.8 °F 64% 30.19 in 10.0 mi NW 31.1 mph 41.4 mph N/A   Overcast
2:35 PM 26.6 °F 10.3 °F 15.8 °F 64% 30.21 in 10.0 mi WNW 29.9 mph 40.3 mph N/A   Overcast
2:55 PM 26.6 °F 11.1 °F 15.8 °F 64% 30.22 in 10.0 mi NW 26.5 mph 34.5 mph N/A   Overcast
3:15 PM - - - N/A% 30.23 in 10.0 mi NW 28.8 mph 38.0 mph N/A   Overcast
3:35 PM 26.6 °F 10.0 °F 17.6 °F 69% 30.26 in 10.0 mi NW 31.1 mph 44.9 mph N/A   Overcast
3:55 PM 26.6 °F 9.8 °F 15.8 °F 64% 30.27 in 10.0 mi NW 32.2 mph 42.6 mph N/A   Overcast
4:15 PM 26.6 °F 10.0 °F 15.8 °F 64% 30.28 in 10.0 mi NW 31.1 mph 40.3 mph N/A   Overcast
4:35 PM 26.6 °F 10.6 °F 15.8 °F 64% 30.30 in 10.0 mi NW 28.8 mph 40.3 mph N/A   Overcast
4:55 PM 24.8 °F 8.4 °F 14.0 °F 64% 30.30 in 10.0 mi NW 27.6 mph 41.4 mph N/A   Overcast
5:15 PM - - - N/A% 30.31 in 10.0 mi NW 24.2 mph 34.5 mph N/A   Overcast
5:35 PM - - - N/A% 30.32 in 10.0 mi NW 20.7 mph 34.5 mph N/A   Overcast
5:55 PM - - - N/A% 30.33 in 10.0 mi NW 24.2 mph 34.5 mph N/A   Overcast
6:15 PM - - - N/A% 30.34 in 10.0 mi NW 24.2 mph 32.2 mph N/A   Overcast
6:35 PM - - - N/A% 30.35 in 10.0 mi NW 25.3 mph 36.8 mph N/A   Overcast
6:55 PM 23.0 °F 4.4 °F 12.2 °F 63% 30.36 in 10.0 mi NW 34.5 mph 44.9 mph N/A   Mostly Cloudy
7:15 PM 21.2 °F 3.5 °F 10.4 °F 63% 30.37 in 10.0 mi NW 27.6 mph 38.0 mph N/A   Scattered Clouds
7:35 PM 21.2 °F 3.0 °F 12.2 °F 68% 30.37 in 10.0 mi NW 29.9 mph 36.8 mph N/A   Mostly Cloudy
7:55 PM 21.2 °F 4.9 °F 12.2 °F 68% 30.37 in 10.0 mi NW 23.0 mph 34.5 mph N/A   Overcast
8:15 PM 21.2 °F 5.2 °F 12.2 °F 68% 30.38 in 10.0 mi NW 21.9 mph 33.4 mph N/A   Overcast
8:35 PM - - - N/A% 30.37 in 10.0 mi NW 28.8 mph 34.5 mph N/A   Overcast
8:55 PM 21.2 °F 3.9 °F 12.2 °F 68% 30.38 in 10.0 mi NW 26.5 mph 35.7 mph N/A   Overcast
9:15 PM 21.2 °F 4.2 °F 12.2 °F 68% 30.38 in 10.0 mi NW 25.3 mph 32.2 mph N/A   Overcast
9:35 PM 21.2 °F 2.7 °F 14.0 °F 74% 30.38 in 10.0 mi NW 31.1 mph 36.8 mph N/A   Overcast
9:55 PM 21.2 °F 4.5 °F 12.2 °F 68% 30.39 in 10.0 mi NW 24.2 mph 33.4 mph N/A   Overcast
10:35 PM 21.2 °F 5.2 °F 12.2 °F 68% 30.38 in 10.0 mi NW 21.9 mph 27.6 mph N/A   Overcast
11:15 PM 19.4 °F 3.2 °F 12.2 °F 74% 30.38 in 10.0 mi NW 20.7 mph 26.5 mph N/A   Mostly Cloudy
11:35 PM 19.4 °F 4.1 °F 12.2 °F 74% 30.38 in 10.0 mi NW 18.4 mph 29.9 mph N/A   Scattered Clouds
11:55 PM 19.4 °F 2.8 °F 12.2 °F 74% 30.38 in 10.0 mi NW 21.9 mph 31.1 mph N/A   Mostly Cloudy